Location: Eppenbrunn
(49.1158°N, 7.5601°E)
Time: 11:12:17
(UTC+00:00)

Cosmos 1461 - Pass Details

Date: 09 April 2020
Orbit: 507 x 659 km, 65.0° (Epoch: 25 May)

Event Time Altitude Azimuth Distance (km) Brightness Sun altitude
Rises 18:55:56 0° 320° (NW) 2,880 7.7 -7.4°
Reaches altitude 10° 18:58:10 10° 319° (NW) 1,994 6.8 -7.8°
Maximum altitude 19:02:42 81° 233° (SW) 651 3.2 -8.5°
Drops below altitude 10° 19:07:22 10° 147° (SSE) 2,051 5.2 -9.2°
Enters shadow 19:07:57 - 147° (SSE) 2,276 5.4 -9.3°
